sat.trackr.live / text

‹ back to catalog

SITRO-AIS-60

NORAD 67260 · 2025-313N

PAYLOAD ACTIVE UNKNOWN

§ Identity

Operator
Country
CIS
Launch date
2025-12-28
Launch site
VOSTO
Launch vehicle
Mass (kg)
RCS (m²)

External: N2YO · Heavens-Above · Gunter

§ Orbital elements

Epoch: 2026-05-25T02:46:25.764672Z

Period
94.62 min
Inclination
97.3955°
Eccentricity
0.0015379
Mean motion
15.21807243 rev/d
Perigee alt
489.8 km
Apogee alt
511.0 km
Semi-major
6,878.5 km
B*
2.7481e-4
RAAN
220.0240°
Arg perigee
86.8121°
Mean anomaly
273.4874°
Rev number
2,243

§ Raw data

SITRO-AIS-601 67260U 25313N   26145.11557598  .00006190  00000+0  27481-3 0  99942 67260  97.3955 220.0240 0015379  86.8121 273.4874 15.21807243 22431

JSON: /api/v1/satellites/67260 · /tle

For live sub-satellite position, see the globe view (requires WebGL).

§ Visibility from observer

Set your observer location to see the next 7 days of passes ≥ 10°. The values pass through the URL so the page stays shareable.

No JS? Fill the form by hand. The geolocation button needs JavaScript.